Temperature
9 9 8 9 10 11 11 10 10 11 12 11 10 11 11 11 11 10 10 9 9 8 8 8 8 8 8 8 9 9 9 9 10 10 10 11 11 11 11 12 12 12 12 12
8 8 10 10 10 10 10 10 10 11 11 11 10 10 11 11 10 10 10 9 9 8 8 8 8 8 8 8 8 8 8 9 9 9 10 10 10 11 11 11 11 11 12 12
8 9 10 10 10 10 10 9 10 10 10 11 10 10 11 11 11 10 10 9 9 8 8 7 7 7 7 7 7 8 8 8 9 9 9 9 10 10 10 10 11 11 11 11
9 9 10 9 9 10 9 10 10 9 8 9 10 8 10 10 10 10 10 9 8 8 7 7 7 7 7 7 7 7 7 8 8 8 9 9 9 9 10 10 10 11 11 11
8 9 9 9 9 9 9 10 9 9 8 8 9 9 10 10 9 9 9 9 8 8 7 7 7 6 6 6 7 7 7 7 8 8 8 9 9 9 9 10 10 10 10 11
8 9 9 9 9 9 9 9 9 9 8 8 10 9 9 9 9 9 9 9 8 7 7 7 6 6 6 6 6 6 7 7 7 8 8 8 8 9 9 9 9 10 10 10
8 9 9 9 8 9 9 7 8 8 8 9 11 10 9 10 9 9 9 8 8 7 7 6 6 6 5 5 5 5 6 6 7 7 7 8 8 8 8 9 9 9 9 9
7 7 8 9 8 8 8 8 7 8 8 9 10 9 9 10 9 9 9 8 8 7 6 6 6 5 5 5 5 5 5 6 6 6 7 7 7 7 8 8 8 9 9 9
8 7 9 9 9 8 8 8 8 7 8 8 9 10 9 10 9 9 8 8 7 7 6 6 5 5 5 5 5 5 5 5 6 6 6 6 7 7 7 8 8 8 8 8
8 7 8 8 8 8 8 8 7 7 8 8 10 10 9 8 8 8 8 7 7 6 6 5 5 5 4 4 4 5 5 5 5 6 6 6 6 6 7 7 7 7 7 8
8 7 7 8 8 8 8 8 8 7 7 7 8 9 10 9 8 8 7 7 7 6 6 5 5 4 4 4 4 4 4 5 5 5 5 5 6 6 6 6 7 7 7 7
8 7 6 8 8 8 8 8 8 7 7 7 7 8 10 9 9 8 8 7 7 6 5 5 5 4 4 4 4 4 4 4 4 5 5 5 5 5 6 6 6 6 6 6
8 7 6 7 7 7 7 8 8 7 6 6 7 8 9 9 8 8 8 7 6 6 5 5 4 4 4 4 4 4 4 4 4 4 5 5 5 5 5 5 5 6 6 6
7 6 6 7 7 7 7 7 7 6 5 6 7 8 8 8 8 8 7 7 6 5 5 4 4 3 3 3 3 4 4 4 4 4 4 4 4 4 5 5 5 5 5 6
7 6 6 7 8 8 7 7 7 6 6 6 7 7 8 8 7 8 7 7 6 5 5 4 4 3 3 3 3 3 3 3 4 4 4 4 4 4 4 4 4 5 5 5
6 6 6 6 7 7 7 7 7 7 7 7 7 7 8 8 8 8 7 6 6 5 4 4 3 3 3 3 3 3 3 3 3 3 3 3 3 4 4 4 4 4 4 4
6 5 5 6 7 7 6 8 7 7 7 7 6 7 8 7 7 7 7 6 5 5 4 4 3 3 3 3 3 3 3 3 3 3 3 3 3 3 3 3 4 4 3 3
5 5 5 5 6 6 8 9 9 8 8 8 7 8 8 8 8 7 7 6 5 5 4 4 4 3 3 3 3 3 2 2 2 2 2 2 2 2 3 3 3 3 3 3
5 5 5 5 5 7 8 8 8 7 7 8 7 8 8 8 7 7 7 6 5 5 4 4 4 3 3 3 3 2 2 2 2 2 2 2 2 2 2 2 2 2 2 3
5 5 4 5 5 6 8 7 8 7 6 8 8 7 7 6 4 5 7 6 5 4 4 4 4 3 3 3 2 2 2 2 2 2 2 2 2 2 2 2 1 2 1 2
3 3 3 4 4 6 8 7 7 6 6 7 7 7 7 5 5 6 6 5 5 4 4 4 3 3 3 3 2 2 2 2 2 1 1 1 1 1 1 1 1 1 1 1
4 4 4 4 4 5 6 6 5 6 7 7 7 6 6 6 5 5 5 5 4 4 4 3 3 3 3 2 2 2 2 2 1 1 1 1 1 1 1 1 1 0 0 0
5 5 5 5 6 7 7 7 7 7 7 6 6 6 6 5 5 5 4 4 4 4 3 3 3 3 2 2 2 2 2 1 1 1 1 1 0 0 0 0 0 -0 -0 -0
6 6 5 5 5 7 8 7 7 7 6 6 5 5 5 5 4 4 4 4 3 3 3 3 3 2 2 2 2 1 1 1 1 1 0 0 0 -0 -0 -0 -1 -1 -1 -1
6 5 4 4 5 6 7 7 7 6 6 5 5 5 4 4 4 4 3 3 3 3 3 3 2 2 2 2 1 1 1 1 0 0 -0 -0 -0 -1 -1 -1 -1 -1 -1 -2
4 4 3 4 6 5 6 7 6 6 5 5 5 4 4 4 3 3 3 3 3 2 2 2 2 2 2 1 1 1 1 0 -0 -0 -0 -1 -1 -1 -1 -2 -1 -2 -2 -2
Wind_Speed
2 2 2 2 3 4 4 3 4 3 1 3 6 8 5 1 1 3 4 4 5 5 5 6 6 6 5 5 5 5 4 4 2 2 2 2 3 3 3 3 4 5 5 5
1 2 1 0 1 3 4 3 3 3 2 5 7 8 5 3 2 1 2 4 5 6 7 7 7 6 6 5 5 4 4 4 3 2 2 2 3 3 3 3 3 4 5 6
1 1 0 1 1 3 3 3 3 3 5 6 6 5 4 4 3 1 2 3 4 6 6 7 6 6 6 5 5 5 5 5 3 2 1 2 2 2 2 3 3 3 4 5
0 1 1 1 2 2 2 2 3 4 4 3 3 4 3 3 1 1 3 4 5 5 6 6 6 7 6 5 5 5 5 5 3 2 2 2 2 3 4 3 3 3 4 4
1 1 0 1 1 2 1 4 4 5 4 4 4 4 3 3 1 2 3 4 5 5 5 6 6 6 6 6 5 5 5 5 4 3 2 2 3 3 3 2 3 3 3 4
1 1 1 1 2 1 2 3 4 3 2 4 4 4 3 1 1 2 2 4 5 5 6 6 7 7 7 7 7 6 5 6 5 4 2 2 3 3 3 3 3 2 2 3
1 2 1 0 1 1 1 2 1 1 2 4 2 2 2 3 3 2 2 3 4 5 6 7 8 8 8 8 7 7 6 5 5 4 4 2 3 3 3 3 3 3 3 3
0 1 2 0 1 1 2 1 2 2 2 1 1 3 2 5 5 4 3 3 4 5 6 6 7 8 8 9 8 8 7 6 5 5 4 3 3 2 2 1 2 2 3 3
2 1 2 1 1 2 1 1 1 2 4 3 3 3 3 4 4 3 3 4 5 5 6 6 7 7 8 8 8 8 8 7 6 5 4 4 3 2 2 2 1 1 2 2
4 1 1 1 2 2 2 2 1 2 3 3 3 2 2 2 1 1 2 3 4 5 6 6 6 7 7 7 7 8 8 8 6 6 5 4 4 3 2 1 2 2 2 2
3 1 1 2 3 2 2 2 2 3 3 2 3 1 2 3 2 1 1 2 3 4 5 5 5 6 6 7 8 8 8 8 7 6 6 5 5 5 4 3 3 2 2 3
2 1 2 2 1 1 2 2 2 2 3 3 3 3 2 4 3 2 1 2 3 3 4 4 5 5 6 7 7 8 8 8 7 7 6 6 6 6 5 5 4 3 2 2
2 1 2 1 1 2 3 3 3 2 2 3 3 4 1 3 2 1 0 1 2 3 4 4 5 5 6 6 7 7 7 7 7 6 6 6 6 6 6 5 5 4 3 3
4 3 3 3 3 2 4 5 5 4 3 4 5 6 4 2 1 1 0 1 1 2 3 3 4 4 5 5 6 6 6 6 6 6 6 7 7 6 6 6 5 5 4 3
2 3 5 8 9 7 8 8 8 9 8 6 6 6 6 4 3 2 1 0 1 2 3 3 4 4 4 5 5 6 6 6 6 6 6 6 6 6 5 5 6 6 5 5
2 3 5 6 7 8 10 10 10 10 9 10 10 10 5 2 2 2 2 1 2 2 2 3 3 4 4 5 5 5 6 6 6 6 6 6 6 7 6 5 5 5 5 5
2 2 3 4 3 6 8 9 10 7 7 7 8 6 2 2 3 3 3 2 2 1 2 2 2 3 3 3 4 4 5 5 5 5 5 5 6 6 6 6 6 6 5 5
3 3 3 4 5 6 5 1 3 6 6 7 7 5 3 3 3 3 3 3 2 1 1 2 2 2 2 2 3 3 4 4 5 5 5 6 6 6 6 6 6 6 5 4
4 3 3 3 5 7 4 3 3 4 5 5 6 5 2 1 2 4 3 2 2 2 2 2 2 2 2 2 2 3 3 3 4 5 5 6 6 6 6 6 6 6 5 5
2 3 3 3 4 6 3 3 3 2 4 2 3 2 1 1 2 4 1 1 1 1 1 1 1 1 1 2 2 2 2 3 4 4 5 5 5 5 6 6 6 5 5 5
3 4 6 6 6 7 2 4 4 3 4 0 1 2 2 3 4 2 1 1 2 1 1 1 1 1 2 1 2 2 2 3 3 3 3 4 4 4 5 5 5 5 5 5
6 6 6 5 6 8 4 5 5 4 1 0 2 2 3 3 3 2 2 2 2 2 2 2 2 2 2 1 1 2 3 3 2 3 3 4 4 4 5 5 5 5 5 5
7 7 4 7 8 3 5 5 4 1 2 2 3 3 3 4 4 4 4 4 4 4 3 3 2 2 2 2 1 3 3 2 2 2 3 4 4 4 4 5 5 5 5 5
5 4 4 6 8 6 6 6 6 5 5 4 4 4 4 5 5 5 4 4 4 4 4 3 3 4 3 2 2 3 3 2 2 2 3 3 3 4 4 4 3 4 4 5
6 4 5 8 8 7 7 6 5 4 4 4 5 5 5 5 6 6 5 5 4 4 4 4 4 5 4 3 3 2 2 1 2 2 2 3 3 3 4 4 3 3 3 4
7 8 8 10 6 5 5 3 2 3 4 5 5 6 5 5 6 6 5 5 5 4 4 4 5 5 4 3 3 2 2 2 2 2 2 2 2 3 3 4 5 5 4 6
Wind_Direction
218 214 205 215 246 295 293 275 273 286 285 286 266 271 267 242 283 315 334 351 347 340 338 342 342 338 335 336 329 326 316 304 298 273 246 232 239 236 221 212 209 199 193 187
237 233 263 120 275 277 273 274 286 305 325 296 273 274 260 183 180 288 353 348 341 343 344 341 341 341 337 334 331 326 319 307 292 270 260 244 243 237 221 223 216 207 195 190
248 356 202 197 236 260 283 283 300 320 313 265 268 274 203 166 165 93 20 355 354 350 340 341 345 344 336 334 333 328 320 310 295 277 268 262 248 248 237 224 215 219 210 195
301 229 201 214 261 281 282 338 334 317 309 282 275 286 221 168 179 8 7 3 357 352 351 350 350 348 343 335 329 327 324 320 314 287 249 233 230 236 238 223 212 212 214 198
77 77 147 227 310 327 308 334 301 281 280 289 242 244 265 133 259 318 356 358 1 4 0 357 358 355 352 351 342 328 330 337 337 320 276 262 249 240 242 228 201 210 210 204
120 74 3 326 352 306 306 301 272 242 268 268 225 208 276 156 243 317 354 1 1 5 4 7 8 7 6 4 354 352 345 339 342 337 337 312 275 250 231 229 211 217 217 209
98 139 130 334 2 71 346 342 334 258 229 244 158 186 243 91 84 61 0 348 2 7 6 8 6 4 3 360 356 356 354 347 349 353 347 332 306 272 236 226 215 220 224 219
79 152 137 116 12 314 264 298 342 302 288 306 218 213 145 84 77 61 32 15 14 8 7 9 4 2 0 356 354 358 360 358 358 359 351 342 326 312 292 258 238 237 236 231
355 35 97 83 6 337 305 278 350 293 286 276 239 178 122 77 70 46 26 21 11 9 8 7 5 5 1 356 356 359 0 2 4 2 358 356 347 331 315 314 288 272 266 253
336 310 224 153 210 224 262 319 299 266 302 288 264 214 198 157 166 22 17 16 7 3 3 5 6 6 1 358 357 3 6 5 6 7 5 357 352 345 333 328 310 293 273 253
326 308 254 207 208 193 184 218 257 270 275 283 295 301 50 117 110 62 11 9 8 358 358 1 4 7 6 6 5 7 8 7 7 6 4 4 1 356 356 350 334 309 272 253
324 312 266 227 126 70 246 232 218 246 277 261 274 266 78 94 84 68 28 12 20 16 5 3 6 10 11 8 5 6 6 5 3 3 3 2 -0 1 357 349 335 324 302 277
327 292 300 249 189 204 242 233 234 253 287 257 256 249 129 95 99 102 72 16 25 22 10 6 8 9 8 3 3 7 5 1 357 0 2 1 2 1 359 353 342 340 334 314
328 280 248 263 289 251 242 233 217 202 220 249 238 253 258 266 273 289 321 30 26 17 3 1 0 2 1 360 1 3 359 357 356 2 7 2 354 353 352 351 350 351 350 347
297 274 274 278 283 274 257 247 228 220 223 235 262 270 272 271 258 254 245 341 349 349 348 350 351 352 354 355 357 358 356 356 354 1 3 357 353 350 353 357 1 4 6 9
280 279 292 276 258 259 262 248 235 234 235 246 265 276 262 225 226 236 234 229 294 317 338 340 340 344 345 347 350 352 350 350 356 0 355 352 352 351 355 358 1 5 6 6
242 269 291 279 284 300 269 237 214 216 215 219 242 252 249 251 251 253 239 229 254 291 324 325 320 321 329 334 338 339 338 346 355 353 351 353 353 353 353 359 4 1 356 356
244 260 268 289 313 263 244 60 178 215 235 227 246 267 266 253 260 254 226 206 227 259 285 297 306 307 311 319 326 328 337 350 351 350 353 356 356 353 353 0 1 353 345 349
227 245 269 280 281 275 248 194 180 214 260 228 235 254 270 356 315 265 194 160 207 230 247 254 274 286 302 312 312 321 333 344 348 348 351 354 355 352 354 355 351 346 344 346
220 242 251 258 264 259 259 126 91 85 273 234 204 228 222 82 272 267 177 158 218 222 211 238 281 297 307 318 322 311 317 333 340 341 345 349 352 351 350 345 341 339 339 338
189 210 221 239 253 265 241 143 128 178 249 126 218 235 211 225 238 266 286 216 209 214 219 227 266 276 282 305 316 312 325 323 322 331 340 344 344 343 343 341 343 340 341 341
194 199 207 207 229 251 170 146 192 222 148 235 273 262 253 259 276 272 263 237 223 223 222 223 239 263 276 283 294 299 302 306 323 333 336 337 336 339 343 340 341 343 346 346
210 211 214 212 225 238 178 202 222 187 251 263 271 273 269 269 268 262 256 243 232 226 225 222 225 248 261 254 253 275 290 310 327 327 324 326 331 335 337 339 341 343 345 347
232 213 237 265 261 259 242 239 242 231 244 262 269 270 266 267 270 269 255 249 239 229 228 225 224 237 251 252 256 264 287 311 315 314 316 322 329 333 334 334 337 339 339 340
245 207 233 257 268 279 259 247 250 247 252 267 266 258 252 253 264 263 259 251 241 235 227 226 229 233 239 239 250 265 278 291 289 295 304 317 325 327 327 328 328 327 325 331
224 222 229 246 245 247 273 284 272 256 254 255 260 265 258 246 254 260 261 252 241 233 230 233 236 240 240 231 237 246 252 248 254 281 299 309 317 321 324 328 331 331 322 330
Height
1487 1488 1488 1487 1486 1486 1485 1485 1485 1483 1482 1483 1483 1480 1478 1477 1478 1478 1477 1476 1475 1473 1471 1468 1466 1463 1461 1460 1459 1458 1457 1457 1458 1458 1459 1461 1462 1464 1466 1469 1471 1474 1477 1481
1489 1488 1486 1485 1486 1486 1486 1487 1485 1483 1481 1483 1481 1478 1474 1474 1476 1476 1476 1475 1473 1471 1469 1466 1464 1461 1459 1458 1456 1455 1454 1454 1454 1454 1455 1457 1459 1460 1462 1465 1466 1469 1473 1476
1488 1488 1486 1486 1487 1487 1486 1487 1486 1486 1484 1480 1480 1477 1472 1472 1473 1474 1474 1474 1472 1471 1468 1465 1462 1460 1457 1456 1454 1452 1451 1451 1450 1450 1451 1453 1455 1456 1458 1460 1462 1465 1468 1471
1488 1487 1487 1487 1488 1487 1489 1485 1486 1487 1490 1487 1483 1486 1472 1471 1472 1472 1473 1472 1471 1469 1467 1465 1462 1459 1456 1454 1452 1450 1449 1448 1447 1447 1448 1449 1450 1451 1453 1456 1458 1461 1464 1466
1488 1487 1488 1488 1488 1488 1488 1486 1487 1488 1489 1489 1482 1485 1475 1470 1472 1472 1472 1471 1470 1468 1466 1464 1461 1458 1455 1452 1450 1448 1446 1445 1444 1444 1445 1445 1446 1448 1450 1452 1454 1457 1459 1462
1488 1488 1489 1489 1488 1488 1488 1488 1486 1486 1489 1491 1477 1481 1478 1473 1472 1471 1471 1471 1470 1468 1466 1463 1460 1457 1454 1452 1449 1446 1444 1442 1441 1441 1442 1443 1444 1445 1447 1449 1450 1453 1455 1458
1488 1489 1489 1489 1489 1489 1490 1493 1493 1492 1492 1484 1471 1476 1476 1470 1469 1470 1470 1470 1469 1468 1465 1462 1459 1457 1454 1451 1448 1446 1443 1441 1440 1440 1440 1440 1441 1442 1443 1444 1446 1448 1451 1453
1492 1494 1490 1490 1491 1492 1491 1493 1497 1496 1488 1480 1473 1476 1473 1468 1469 1470 1470 1470 1469 1467 1465 1463 1460 1457 1454 1451 1448 1445 1442 1440 1439 1438 1438 1438 1439 1440 1440 1441 1442 1444 1446 1448
1492 1494 1490 1490 1490 1491 1491 1492 1492 1497 1490 1488 1475 1468 1470 1468 1470 1470 1470 1469 1468 1467 1465 1463 1460 1457 1454 1451 1448 1445 1442 1439 1437 1436 1436 1437 1437 1438 1437 1438 1439 1440 1442 1444
1493 1496 1491 1491 1491 1492 1492 1491 1494 1496 1493 1486 1473 1468 1473 1472 1471 1470 1470 1469 1468 1467 1465 1463 1460 1457 1455 1452 1448 1445 1442 1439 1438 1436 1436 1435 1435 1435 1435 1435 1435 1437 1438 1440
1494 1496 1494 1491 1491 1491 1492 1492 1492 1492 1491 1492 1484 1479 1468 1469 1469 1470 1470 1469 1468 1467 1465 1463 1460 1458 1455 1452 1448 1445 1442 1440 1438 1437 1436 1434 1434 1433 1433 1433 1433 1433 1434 1436
1495 1496 1496 1491 1488 1488 1489 1489 1491 1496 1492 1488 1488 1484 1467 1467 1468 1469 1469 1469 1468 1467 1465 1463 1460 1458 1455 1451 1448 1445 1443 1441 1439 1437 1435 1434 1433 1432 1431 1430 1430 1430 1430 1431
1496 1497 1499 1493 1494 1492 1490 1488 1488 1491 1494 1492 1489 1481 1467 1466 1467 1468 1469 1468 1468 1467 1465 1463 1460 1457 1454 1451 1449 1446 1444 1442 1440 1437 1435 1433 1432 1431 1430 1429 1428 1427 1427 1427
1497 1497 1499 1496 1489 1488 1488 1487 1487 1491 1496 1488 1481 1474 1468 1467 1467 1467 1468 1467 1467 1466 1464 1462 1460 1457 1454 1452 1449 1446 1444 1442 1439 1437 1435 1433 1432 1430 1429 1427 1426 1425 1424 1424
1497 1497 1493 1489 1485 1483 1483 1482 1483 1486 1485 1485 1475 1470 1466 1466 1466 1466 1466 1466 1466 1465 1463 1461 1459 1457 1454 1451 1449 1446 1444 1441 1439 1436 1434 1433 1431 1429 1428 1426 1424 1423 1422 1422
1496 1496 1493 1489 1482 1480 1479 1476 1476 1477 1477 1475 1472 1468 1462 1463 1463 1463 1464 1464 1464 1463 1462 1460 1458 1456 1453 1451 1448 1446 1444 1441 1439 1436 1434 1432 1430 1428 1427 1425 1424 1422 1421 1421
1496 1496 1494 1489 1479 1479 1478 1466 1468 1469 1467 1468 1469 1465 1461 1461 1461 1461 1461 1461 1461 1461 1460 1459 1457 1455 1453 1451 1448 1446 1443 1441 1438 1436 1434 1432 1430 1427 1425 1424 1422 1421 1420 1419
1495 1495 1495 1490 1486 1484 1466 1458 1459 1461 1461 1461 1460 1459 1459 1459 1459 1459 1459 1459 1459 1458 1458 1457 1455 1453 1451 1449 1447 1445 1443 1440 1438 1436 1434 1431 1429 1427 1425 1423 1422 1420 1419 1417
1493 1494 1494 1492 1487 1473 1461 1459 1458 1461 1460 1456 1457 1457 1457 1457 1457 1456 1456 1456 1456 1456 1455 1454 1453 1451 1450 1448 1445 1443 1441 1439 1437 1435 1433 1431 1429 1427 1425 1423 1421 1420 1418 1416
1492 1493 1496 1491 1489 1479 1460 1458 1457 1461 1462 1454 1454 1455 1456 1456 1460 1456 1454 1454 1454 1453 1452 1451 1450 1449 1447 1445 1444 1442 1440 1438 1436 1434 1432 1431 1429 1426 1424 1422 1421 1419 1417 1415
1493 1494 1494 1492 1486 1471 1458 1457 1459 1466 1460 1454 1453 1453 1454 1454 1455 1453 1451 1451 1451 1450 1450 1449 1447 1446 1444 1443 1441 1439 1438 1436 1435 1433 1432 1429 1427 1425 1423 1421 1420 1417 1415 1413
1483 1486 1485 1483 1482 1471 1457 1457 1459 1456 1453 1452 1452 1452 1452 1451 1451 1450 1449 1448 1448 1447 1446 1445 1444 1443 1442 1440 1439 1437 1436 1435 1433 1432 1430 1428 1426 1424 1422 1420 1417 1415 1413 1411
1473 1472 1470 1469 1464 1455 1453 1452 1452 1451 1451 1450 1450 1449 1449 1448 1447 1446 1446 1445 1445 1444 1443 1442 1441 1440 1439 1437 1436 1434 1433 1432 1431 1429 1428 1426 1424 1422 1420 1418 1415 1413 1411 1409
1465 1463 1464 1461 1453 1450 1449 1449 1448 1448 1448 1447 1447 1446 1446 1445 1444 1443 1442 1441 1441 1440 1439 1438 1437 1436 1435 1434 1433 1432 1431 1429 1428 1426 1425 1423 1422 1420 1418 1416 1414 1412 1410 1407
1461 1460 1461 1457 1450 1447 1445 1445 1444 1444 1444 1444 1443 1443 1442 1441 1440 1439 1438 1437 1436 1436 1435 1435 1433 1432 1431 1431 1430 1429 1427 1426 1425 1423 1422 1421 1419 1418 1416 1414 1413 1410 1409 1407
1454 1455 1456 1450 1445 1445 1442 1441 1441 1440 1440 1440 1439 1438 1437 1437 1436 1435 1434 1433 1432 1431 1431 1430 1429 1428 1427 1427 1426 1425 1424 1423 1422 1420 1419 1418 1416 1415 1413 1411 1410 1408 1407 1405